Terminal Aerodrome Forecast
Issued by NWS Charleston, WV

Current Version | Previous Version | Text Only | Print | Product List | Glossary Off
Versions: 1 2 3 4 5 6 7 8 9 10 11 12 13 14 15 16 17 18 19

000
FTUS41 KRLX 170300 AAA
TAFHTS
TAF AMD
KHTS 170307Z 1703/1724 26009KT P6SM -DZ OVC012
     FM170500 27008KT P6SM -DZ OVC010
     FM171500 26009G15KT P6SM BKN015
     FM172000 27008G13KT P6SM BKN025
     FM172300 27007KT P6SM BKN035=

USA.gov is the U.S. government's official web portal to all federal, state and local government web resources and services.